Location: Brusselsch Zeekanaal
(50.8667°N, 4.3667°E)
Time: 23:46:57
(UTC+00:00)

Cosmos 1943 Rocket - Pass Details

Date: 08 November 2025
Orbit: 812 x 841 km, 71.0° (Epoch: 04 December)

Event Time Altitude Azimuth Distance (km) Brightness Sun altitude
Exits shadow 04:06:11 26° 342° (NNW) 1,590 3.5 -25.4°
Maximum altitude 04:09:22 63° 56° (NE) 913 2.5 -24.9°
Drops below altitude 10° 04:14:49 10° 138° (SE) 2,400 5.0 -24.1°
Sets 04:17:15 0° 141° (SE) 3,326 5.8 -23.7°
